Wind_Speed
25 24 25 24 24 24 24 24 23 22 21 19 19 18 16 16 15 15 15 14 14 13 13 11 11 11 11 11 11 11 11 11 11 11 11 11 11 11 12 12 12 12 12 12
26 26 26 26 26 25 25 23 23 23 22 21 20 18 17 16 16 16 15 14 14 14 13 12 12 13 13 12 12 12 12 12 13 13 12 12 12 12 13 13 13 13 14 13
28 28 28 28 26 26 24 24 24 23 21 21 20 20 19 18 17 15 14 14 15 15 15 13 13 13 13 13 12 12 13 13 14 13 13 13 14 14 14 14 14 14 14 14
27 27 28 27 26 25 25 23 22 22 22 22 21 20 20 18 17 16 16 16 15 15 15 14 14 14 14 14 13 13 13 13 13 13 14 14 14 14 14 14 14 14 14 14
26 26 26 24 23 23 24 24 22 23 24 23 22 21 20 19 19 18 17 17 16 16 16 15 15 15 15 15 15 14 14 14 14 15 15 15 15 15 15 15 15 16 15 15
24 24 24 23 23 24 23 23 23 23 23 23 22 22 21 20 19 19 18 18 18 17 18 17 16 16 16 15 15 15 15 16 16 16 16 16 16 16 16 16 16 16 16 16
24 24 24 22 22 23 24 23 23 23 23 23 23 22 23 22 22 20 18 18 18 18 18 18 18 17 17 17 16 16 16 17 17 17 17 18 17 17 17 17 17 17 17 17
24 24 24 22 22 22 23 22 21 22 22 22 22 21 22 22 22 21 20 19 19 19 19 19 18 18 18 18 18 18 17 17 17 17 17 17 17 18 18 18 18 18 18 18
23 23 22 22 22 23 23 23 22 21 21 22 22 22 22 22 22 22 22 21 20 20 20 19 19 19 19 19 19 19 19 18 18 18 18 18 19 19 18 19 19 19 19 19
23 23 22 22 22 23 23 22 22 22 21 21 21 22 23 22 22 22 23 22 22 22 21 21 20 19 20 20 20 20 20 20 20 20 20 21 21 20 20 20 21 21 20 20
22 21 21 21 21 22 22 22 22 22 22 22 22 22 22 22 23 23 23 24 24 23 23 22 22 21 21 21 21 21 21 21 21 21 21 21 20 21 21 22 22 22 21 21
22 21 21 19 20 21 21 21 21 21 21 21 21 20 21 22 22 22 23 23 23 23 23 23 22 22 22 22 22 22 21 21 21 21 21 21 21 21 22 22 22 22 22 22
21 21 20 19 19 20 20 20 19 19 20 20 20 19 20 20 21 22 22 22 23 23 23 23 23 23 22 22 22 22 22 21 21 21 21 21 21 21 21 21 21 21 22 22
19 19 19 19 19 20 19 19 18 17 19 19 19 19 19 19 20 21 22 22 22 22 22 23 23 23 22 22 22 22 22 22 21 21 21 21 21 21 21 21 21 21 22 22
16 17 17 18 18 18 19 18 18 18 19 19 19 20 20 20 20 21 21 21 22 22 22 22 22 22 22 22 22 22 22 22 21 21 21 20 20 20 20 21 21 21 22 22
14 14 14 16 17 16 17 18 18 17 18 19 20 21 21 21 21 21 21 21 22 22 22 22 22 22 22 22 22 22 22 22 22 22 21 21 21 20 21 21 21 21 22 22
13 13 14 15 16 17 17 18 18 18 19 19 18 19 20 20 20 20 21 21 21 22 22 22 22 21 21 21 21 21 21 21 21 20 20 20 20 20 21 21 21 21 21 21
12 12 13 14 14 15 16 17 17 16 17 17 18 18 20 20 20 20 21 22 21 22 23 22 21 20 20 20 20 20 20 19 19 19 19 19 19 19 19 19 20 20 20 20
13 13 13 14 15 16 17 17 16 16 16 17 17 18 18 18 18 19 20 20 20 20 20 20 20 20 20 20 20 19 19 18 18 18 18 18 17 17 18 18 18 19 19 19
14 14 14 14 14 15 15 16 16 16 16 17 17 17 17 17 17 18 19 19 19 19 19 18 18 19 19 19 19 18 17 17 17 17 17 17 17 17 17 17 17 17 18 18
13 14 15 15 16 16 15 15 16 16 18 18 17 17 17 17 18 18 18 19 19 19 18 18 18 18 17 17 18 18 17 17 17 17 17 17 17 17 17 16 16 17 17 17
13 14 15 16 16 16 16 15 16 16 18 18 18 17 17 17 17 17 17 17 17 17 17 17 17 17 17 17 17 17 17 17 17 17 16 16 16 16 15 16 16 16 16 16
13 13 13 14 15 15 15 15 15 15 15 16 17 17 17 16 16 16 16 16 17 17 17 17 17 17 17 17 17 17 17 17 17 16 16 16 16 16 16 16 16 16 16 16
12 12 12 13 13 13 13 13 14 14 14 15 16 16 16 15 15 15 15 15 16 16 16 16 17 17 17 17 17 17 17 17 17 18 18 18 18 17 17 16 16 16 17 16
12 12 12 12 12 12 13 14 14 14 15 15 15 15 15 15 15 14 14 14 15 15 15 15 16 16 16 16 16 17 17 17 18 18 18 18 18 18 17 17 17 17 17 17
12 12 12 13 12 12 12 13 13 14 14 15 15 14 15 15 15 15 15 15 15 14 15 15 15 16 16 17 17 18 18 18 18 18 18 18 18 18 18 18 18 18 18 19
12 12 13 13 13 12 12 12 12 12 13 14 14 14 15 15 15 15 15 15 15 15 15 15 15 15 16 17 17 18 18 18 18 18 18 18 19 19 19 19 19 19 19 20
Wind_Direction
241 243 242 243 245 247 250 254 257 258 258 258 258 261 266 271 273 273 275 276 277 277 273 269 265 265 263 265 266 266 269 271 270 270 271 273 278 279 278 280 281 284 285 284
238 241 244 245 247 249 250 253 255 255 254 255 254 259 263 268 271 274 271 270 272 274 272 267 262 260 262 263 265 267 269 270 268 266 266 271 274 277 278 280 279 281 281 281
241 244 247 247 247 249 248 249 250 251 254 256 257 259 259 264 269 267 267 269 271 271 268 267 257 257 263 264 267 264 266 266 269 265 265 269 272 276 277 278 277 277 275 276
243 245 249 248 247 247 249 252 252 251 252 256 260 257 259 261 265 266 265 265 270 272 269 268 263 262 262 264 267 269 269 266 269 269 267 271 272 274 274 276 276 277 276 277
245 246 246 246 246 246 250 255 254 253 255 259 260 261 261 263 265 265 266 265 267 270 271 268 267 266 267 268 270 270 269 266 269 272 274 278 274 273 272 275 276 277 279 280
243 245 247 247 246 249 251 253 254 254 254 257 256 257 259 262 263 262 261 261 262 266 269 269 267 267 267 265 267 267 265 265 269 273 274 276 275 275 273 274 277 277 277 279
246 246 248 249 249 250 253 255 256 257 257 257 256 255 255 259 261 262 261 260 261 265 267 266 265 266 267 269 270 271 270 269 272 275 276 274 275 276 274 276 278 276 275 278
247 248 247 247 249 250 253 253 255 258 258 257 254 255 256 258 261 261 260 261 263 266 266 264 263 266 267 267 269 270 272 273 275 274 273 274 273 275 275 275 277 277 276 277
247 249 250 251 253 253 253 254 255 257 256 255 255 256 257 259 260 258 258 260 262 264 262 262 264 266 267 268 268 269 271 272 275 275 274 271 271 274 276 275 275 277 275 275
246 247 250 253 254 253 254 255 257 258 257 255 255 257 258 258 259 259 260 260 261 261 261 263 265 266 269 270 270 269 271 273 275 272 270 270 271 274 277 278 277 277 278 278
247 249 252 255 254 252 253 256 258 258 256 256 258 258 257 259 259 259 260 261 261 262 262 263 265 267 269 271 272 272 272 273 273 273 273 273 274 276 278 279 278 277 277 276
245 247 252 254 252 253 254 254 255 256 255 256 258 260 259 259 258 258 260 261 262 263 264 265 265 267 269 271 270 271 272 272 272 273 272 273 275 277 279 279 277 275 275 275
247 247 251 254 253 253 255 257 258 256 255 254 256 257 258 260 257 258 260 261 262 263 263 264 264 266 268 269 268 269 270 271 271 271 271 273 274 277 278 278 278 277 277 276
248 247 252 255 257 258 257 256 255 253 254 253 253 254 258 260 259 258 259 261 261 263 262 263 264 264 266 266 266 266 268 270 271 271 270 272 274 274 275 277 278 277 277 278
249 249 251 253 255 256 256 256 258 254 253 252 252 255 258 261 261 259 259 261 262 262 263 263 264 264 265 264 265 266 267 269 270 270 269 271 272 272 273 275 277 277 276 277
254 253 254 256 256 256 257 258 260 256 252 252 253 255 257 260 260 260 261 262 264 263 263 263 265 264 263 263 265 266 267 269 269 269 268 269 270 271 273 275 277 277 276 277
256 255 255 256 256 257 259 257 256 256 256 255 255 255 257 261 261 261 261 264 266 265 265 264 264 263 262 263 265 266 267 268 268 268 268 268 270 272 273 275 276 276 276 277
257 260 263 263 261 262 260 256 257 257 256 255 258 259 260 262 261 261 262 265 267 268 266 263 262 262 262 263 265 266 266 266 266 267 268 269 270 272 274 275 276 276 277 278
262 267 269 266 263 264 258 255 257 257 258 259 260 260 260 261 263 265 265 267 268 268 265 263 262 261 261 262 263 263 263 263 263 266 268 269 271 273 275 277 278 279 278 280
263 267 270 267 267 267 262 256 257 258 258 261 263 262 259 259 262 265 267 268 269 266 264 263 262 262 260 259 259 260 260 260 260 263 267 269 272 274 276 277 277 279 281 282
263 266 269 270 271 270 266 262 260 260 259 259 261 261 259 260 263 266 267 268 268 266 263 261 262 262 259 258 259 257 256 258 258 262 266 268 271 273 275 275 277 278 280 281
266 268 267 268 270 268 266 265 263 261 259 257 256 258 261 264 265 265 265 266 266 264 261 259 259 260 260 259 260 259 259 259 260 263 266 268 269 270 274 277 279 281 281 280
265 267 267 266 266 266 265 263 261 260 258 256 255 256 259 262 262 262 263 266 267 264 260 260 262 262 262 262 261 261 263 262 262 264 265 267 268 269 273 276 279 282 287 287
264 265 266 265 262 262 262 260 260 258 258 260 260 259 260 261 262 263 265 267 269 265 262 262 264 264 264 263 261 261 261 261 262 264 265 266 269 271 273 274 277 282 285 288
268 266 267 269 266 263 262 260 259 259 259 260 261 259 259 260 262 262 264 266 268 266 264 264 264 264 264 262 261 261 261 261 264 266 267 268 269 270 272 274 275 278 282 286
267 263 264 266 265 264 262 259 258 255 254 256 258 259 259 259 261 264 265 267 267 265 265 265 265 266 265 265 265 264 264 265 267 267 267 267 268 269 270 273 275 277 280 284
266 261 262 262 259 258 259 259 259 258 258 258 259 259 261 262 262 262 264 266 266 266 266 266 266 267 267 267 267 267 267 267 267 268 268 268 268 268 270 273 275 276 277 279
Height
5781 5783 5785 5787 5788 5789 5790 5791 5792 5793 5793 5794 5795 5796 5796 5796 5796 5796 5796 5796 5796 5796 5797 5797 5797 5797 5798 5799 5799 5799 5799 5799 5799 5799 5798 5798 5798 5797 5797 5796 5796 5795 5795 5794
5775 5777 5778 5780 5782 5784 5785 5786 5787 5787 5788 5789 5790 5791 5791 5791 5792 5792 5792 5791 5792 5793 5793 5793 5794 5794 5795 5795 5796 5796 5796 5795 5795 5795 5795 5795 5794 5794 5793 5793 5792 5791 5791 5790
5769 5771 5772 5774 5776 5777 5778 5779 5781 5782 5784 5784 5785 5785 5786 5786 5787 5788 5787 5787 5788 5788 5789 5789 5790 5790 5791 5791 5791 5791 5792 5792 5791 5791 5791 5790 5790 5789 5789 5788 5788 5787 5786 5786
5762 5764 5765 5769 5770 5771 5771 5772 5775 5777 5778 5778 5779 5780 5780 5781 5782 5783 5782 5783 5783 5784 5784 5785 5785 5786 5786 5786 5786 5787 5787 5787 5787 5787 5786 5786 5786 5785 5784 5784 5783 5783 5782 5781
5755 5757 5759 5762 5763 5764 5766 5767 5769 5771 5772 5772 5773 5774 5775 5776 5776 5777 5777 5778 5778 5779 5780 5780 5781 5781 5782 5782 5782 5782 5782 5783 5782 5782 5782 5782 5781 5781 5780 5779 5779 5778 5777 5776
5749 5751 5753 5756 5757 5758 5760 5761 5763 5763 5765 5766 5768 5769 5770 5770 5771 5772 5772 5772 5773 5774 5774 5775 5775 5776 5777 5777 5778 5777 5777 5778 5778 5778 5778 5777 5776 5776 5775 5774 5773 5773 5772 5772
5742 5744 5747 5750 5751 5753 5755 5757 5757 5757 5759 5760 5761 5763 5764 5764 5765 5765 5766 5767 5767 5769 5769 5770 5771 5771 5771 5772 5772 5772 5772 5773 5773 5772 5772 5772 5772 5771 5770 5769 5768 5768 5767 5767
5736 5739 5743 5743 5745 5747 5748 5749 5750 5751 5752 5753 5755 5756 5757 5758 5758 5759 5760 5761 5762 5763 5764 5765 5765 5766 5766 5767 5767 5767 5767 5767 5767 5767 5766 5766 5766 5765 5764 5764 5763 5762 5762 5761
5731 5735 5736 5737 5739 5740 5741 5742 5743 5745 5746 5747 5749 5750 5750 5751 5752 5753 5754 5755 5756 5757 5758 5759 5760 5760 5761 5761 5761 5761 5762 5762 5761 5761 5760 5760 5760 5759 5758 5757 5757 5756 5755 5755
5724 5726 5729 5731 5732 5733 5734 5736 5737 5738 5739 5740 5742 5743 5744 5745 5745 5746 5747 5748 5750 5751 5752 5753 5754 5754 5754 5754 5755 5755 5755 5755 5755 5753 5753 5753 5753 5753 5752 5751 5750 5749 5748 5747
5717 5720 5721 5724 5725 5726 5728 5729 5731 5732 5733 5734 5734 5735 5737 5738 5739 5739 5740 5741 5743 5744 5745 5746 5746 5747 5748 5748 5748 5748 5748 5748 5747 5746 5746 5746 5746 5746 5745 5744 5743 5742 5741 5740
5711 5713 5715 5717 5718 5720 5721 5722 5723 5725 5726 5727 5728 5729 5730 5731 5732 5733 5734 5734 5735 5736 5737 5738 5739 5740 5740 5741 5741 5741 5741 5741 5741 5740 5740 5739 5739 5739 5737 5737 5736 5735 5734 5733
5705 5706 5708 5710 5712 5713 5714 5715 5716 5717 5719 5720 5721 5722 5723 5724 5725 5725 5726 5727 5728 5729 5730 5730 5731 5732 5733 5733 5734 5734 5734 5734 5734 5734 5733 5733 5732 5732 5731 5730 5729 5728 5727 5726
5699 5701 5703 5704 5705 5707 5708 5708 5709 5711 5712 5713 5715 5716 5716 5717 5718 5718 5719 5720 5721 5721 5722 5722 5723 5724 5725 5726 5726 5726 5726 5726 5726 5726 5726 5726 5725 5725 5724 5723 5722 5721 5720 5719
5695 5696 5697 5698 5699 5701 5701 5702 5703 5704 5706 5707 5708 5709 5710 5710 5711 5711 5712 5713 5713 5714 5714 5715 5716 5716 5717 5718 5719 5719 5719 5719 5719 5719 5718 5718 5718 5717 5717 5716 5715 5714 5713 5711
5689 5690 5692 5693 5694 5695 5696 5697 5697 5698 5700 5701 5701 5702 5703 5703 5704 5705 5705 5706 5706 5707 5707 5707 5708 5708 5709 5710 5711 5711 5711 5711 5711 5711 5711 5711 5710 5710 5709 5708 5708 5706 5705 5704
5686 5686 5687 5688 5689 5690 5691 5691 5692 5693 5693 5694 5695 5695 5696 5696 5697 5697 5698 5698 5699 5699 5699 5699 5700 5700 5701 5702 5703 5703 5703 5704 5703 5703 5703 5703 5703 5703 5702 5701 5700 5699 5698 5698
5681 5682 5683 5683 5684 5685 5685 5686 5686 5687 5687 5688 5689 5689 5690 5690 5690 5690 5690 5691 5691 5691 5691 5692 5692 5693 5694 5695 5695 5696 5696 5696 5696 5696 5696 5696 5696 5696 5695 5694 5693 5692 5692 5691
5677 5678 5678 5678 5679 5679 5680 5680 5681 5681 5682 5683 5683 5684 5684 5684 5684 5684 5684 5684 5684 5685 5685 5686 5686 5687 5687 5688 5689 5689 5689 5690 5690 5690 5690 5690 5690 5689 5689 5688 5687 5686 5685 5684
5673 5673 5674 5674 5674 5675 5675 5675 5675 5676 5677 5677 5678 5678 5678 5679 5679 5679 5679 5679 5679 5679 5679 5679 5680 5680 5681 5681 5682 5682 5683 5683 5683 5684 5684 5684 5684 5683 5682 5681 5681 5680 5679 5677
5669 5669 5669 5669 5669 5670 5670 5670 5671 5671 5671 5672 5672 5673 5673 5673 5674 5674 5673 5673 5673 5673 5673 5674 5674 5674 5675 5675 5676 5676 5677 5677 5678 5678 5678 5678 5678 5677 5676 5676 5675 5674 5673 5672
5665 5665 5665 5665 5664 5665 5665 5665 5665 5665 5666 5666 5667 5667 5668 5668 5668 5668 5668 5668 5667 5667 5668 5668 5668 5669 5669 5669 5670 5670 5671 5671 5672 5672 5672 5672 5672 5671 5671 5670 5669 5668 5667 5666
5660 5660 5660 5660 5660 5660 5660 5660 5660 5661 5661 5661 5661 5662 5662 5662 5662 5662 5663 5662 5662 5662 5662 5663 5663 5663 5663 5664 5664 5664 5665 5665 5666 5666 5666 5666 5666 5666 5665 5665 5664 5663 5662 5661
5655 5656 5656 5656 5655 5655 5655 5655 5656 5656 5656 5656 5656 5656 5657 5657 5657 5657 5657 5657 5657 5657 5657 5657 5657 5657 5657 5657 5658 5658 5659 5659 5660 5660 5660 5660 5660 5659 5659 5659 5658 5658 5656 5655
5651 5651 5651 5651 5651 5651 5651 5651 5651 5651 5651 5651 5651 5651 5652 5652 5652 5652 5652 5652 5652 5652 5652 5652 5652 5651 5651 5651 5652 5652 5653 5653 5653 5653 5654 5654 5654 5653 5653 5653 5653 5652 5651 5650
5646 5647 5647 5647 5647 5647 5646 5646 5646 5646 5646 5646 5646 5647 5647 5647 5647 5647 5647 5647 5647 5647 5647 5646 5646 5646 5646 5646 5646 5647 5647 5647 5647 5647 5647 5647 5647 5647 5647 5646 5646 5645 5645 5644
5642 5642 5642 5642 5642 5642 5642 5642 5642 5642 5642 5642 5642 5642 5642 5642 5642 5642 5642 5642 5642 5642 5642 5641 5641 5641 5641 5641 5641 5641 5641 5641 5641 5641 5641 5640 5640 5640 5640 5640 5639 5639 5638 5637